Regional Weather Roundup
Issued by NWS

Home | Current Version | Previous Version | Graphics & Text | Print | Product List | Glossary On
Versions: 1 2 3 4 5 6 7 8 9 10 11 12 13 14 15 16 17 18 19 20 21 22 23 24 25 26 27 28 29 30 31 32 33 34 35 36 37 38 39 40 41 42 43 44 45 46 47 48 49 50
000
ASUS45 KABQ 291401
RWRNM
WEATHER ROUNDUP FOR NEW MEXICO
NATIONAL WEATHER SERVICE ALBUQUERQUE NM
800 AM MDT FRI AUG 29 2014

NOTE: "FAIR" MEANS FEW OR NO CLOUDS BELOW 12,000 FEET AGL WITH NO
       SIGNIFICANT WEATHER OR OBSTRUCTIONS TO VISION.

      THIS PRODUCT IS RELEASED AS TWO VERSIONS.  ONE VERSION NEAR
      THE TOP OF THE HOUR CONTAINING PRELIMINARY DATA FROM ALBUQUERQUE
      AND OTHER STATIONS.  A FINAL VERSION WITH ADDITIONAL DATA IS
      ISSUED ABOUT 10 MINUTES AFTER THE HOUR.

NMZ501-503-504-510>518-291500-
NORTHWEST PLATEAU/NORTHCENTRAL MOUNTAINS

CITY           SKY/WX    TMP DP  RH WIND       PRES   REMARKS
FARMINGTON     SUNNY     56  42  59 E3        30.19R
LOS ALAMOS     SUNNY     59  40  49 N7        30.29S
SANTA FE       SUNNY     57  47  69 N3        30.24R
ANGEL FIRE     FAIR      41  38  90 CALM      30.37S

$$
NMZ402-403-502-505>509-291500-
WESTCENTRAL MOUNTAINS/SOUTHWEST MOUNTAINS

CITY           SKY/WX    TMP DP  RH WIND       PRES   REMARKS
GALLUP         SUNNY     51  36  56 CALM      30.27R
SILVER CITY    SUNNY     68  39  34 NW8       30.16R

$$
NMZ407-409-411-412-291500-
SOUTHERN DESERTS

CITY           SKY/WX    TMP DP  RH WIND       PRES   REMARKS
LORDSBURG      FAIR      63  46  55 CALM      30.07R
DEMING         SUNNY     67  46  47 SW3       30.07R
LAS CRUCES     SUNNY     72  43  34 CALM      30.08R
HOLLOMAN AFB   SUNNY     65  49  56 N5        30.04R
ALAMOGORDO     SUNNY     61  50  67 CALM      30.07R
T OR C         SUNNY     68  46  45 N8        30.12R

$$
NMZ519>523-291500-
CENTRAL VALLEYS/CENTRAL HIGHLANDS

CITY           SKY/WX    TMP DP  RH WIND       PRES   REMARKS
ALBUQUERQUE    SUNNY     65  44  46 N7        30.18S
DOUBLE EAGLE   SUNNY     63  45  51 NE5       30.21R
CLINES CORNERS SUNNY     59  42  53 NW3       30.26R
BELEN          FAIR      62  46  57 NW5       30.18S
SOCORRO        FAIR      65  48  53 N5        30.15R

$$
NMZ524>526-539-540-291500-
SOUTHCENTRAL MOUNTAINS

CITY           SKY/WX    TMP DP  RH WIND       PRES   REMARKS
RUIDOSO        NOT AVBL

$$
NMZ527>531-291500-
NORTHEAST HIGHLANDS/NORTHEAST PLAINS

CITY           SKY/WX    TMP DP  RH WIND       PRES   REMARKS
LAS VEGAS      SUNNY     57  43  59 CALM      30.26R
RATON          SUNNY     51  42  71 NE3       30.21R
CLAYTON        SUNNY     61  47  59 SW7       30.11S

$$
NMZ532>537-291500-
EASTCENTRAL PLAINS

CITY           SKY/WX    TMP DP  RH WIND       PRES   REMARKS
TUCUMCARI      SUNNY     66  52  60 SW5       30.09R
CANNON AFB     SUNNY     65  52  62 NE13      30.10R
CLOVIS AIRPORT   N/A     64  52  63 N13       30.12R

$$
NMZ028-029-538-291500-
SOUTHEAST PLAINS

CITY           SKY/WX    TMP DP  RH WIND       PRES   REMARKS
ROSWELL        SUNNY     70  51  51 N14       30.06R
CARLSBAD       SUNNY     74  51  44 NW15G24   30.02R
HOBBS          MOSUNNY   66  64  94 N13       30.04R


$$


USA.gov is the U.S. government's official web portal to all federal, state and local government web resources and services.